This is the latest recevied weather packets stored in our database for station/object KB2SKP. If no packets are shown the sender has not sent any weather packets the latest 10 day(s).
| Time | Temp. | Humidity | Pressure | Rain* | Wind** | Luminosity | Snow |
|---|---|---|---|---|---|---|---|
| 1777487269 | 16.67° C | 72% | 1007.9 hPa | 0 mm | - | 125 W/m² | - |
| 1777486966 | 16.67° C | 72% | 1008 hPa | 0 mm | - | 85 W/m² | - |
| 1777486662 | 16.11° C | 71% | 1008.1 hPa | 0 mm | - | 90 W/m² | - |
| 1777486360 | 16.11° C | 71% | 1008.3 hPa | 0 mm | - | 89 W/m² | - |
| 1777486058 | 16.11° C | 71% | 1008.3 hPa | 0 mm | - | 109 W/m² | - |
| 1777485754 | 16.11° C | 72% | 1008.4 hPa | 0 mm | - | 91 W/m² | - |
| 1777485449 | 16.11° C | 71% | 1008.5 hPa | 0 mm | - | 87 W/m² | - |
| 1777485145 | 16.11° C | 71% | 1008.4 hPa | 0 mm | - | 90 W/m² | - |
| 1777484842 | 16.67° C | 72% | 1008.6 hPa | 0 mm | - | 86 W/m² | - |
| 1777484539 | 16.67° C | 74% | 1008.5 hPa | 0 mm | - | 83 W/m² | - |
| 1777484236 | 16.11° C | 74% | 1008.5 hPa | 0 mm | - | 75 W/m² | - |
| 1777483932 | 16.11° C | 74% | 1008.6 hPa | 0 mm | - | 50 W/m² | - |
| 1777483629 | 16.67° C | 74% | 1008.8 hPa | 0 mm | - | 37 W/m² | - |
| 1777483324 | 16.67° C | 74% | 1008.8 hPa | 0 mm | - | 30 W/m² | - |
| 1777483020 | 17.22° C | 74% | 1008.9 hPa | 0 mm | - | 27 W/m² | - |
| 1777482716 | 17.22° C | 74% | 1009 hPa | 0 mm | - | 25 W/m² | - |
| 1777482412 | 17.22° C | 73% | 1009.1 hPa | 0 mm | - | 26 W/m² | - |
| 1777482110 | 17.22° C | 73% | 1009.3 hPa | 0 mm | - | 27 W/m² | - |
| 1777481808 | 17.78° C | 71% | 1009.5 hPa | 0 mm | - | 29 W/m² | - |
| 1777481505 | 17.78° C | 70% | 1009.6 hPa | 0 mm | - | 32 W/m² | - |
| 1777481201 | 17.78° C | 70% | 1009.5 hPa | 0 mm | - | 36 W/m² | - |
| 1777480898 | 17.78° C | 70% | 1009.8 hPa | 0 mm | - | 39 W/m² | - |
| 1777480595 | 17.78° C | 69% | 1009.8 hPa | 0 mm | - | 47 W/m² | - |
| 1777480292 | 17.78° C | 69% | 1009.7 hPa | 0 mm | - | 61 W/m² | - |
| 1777479987 | 17.78° C | 68% | 1009.7 hPa | 0 mm | - | 69 W/m² | - |
* Rain latest hour (hover to see other rain measurements)
** Current wind speed in m/s (hover to see current wind gust speed)